TimeCDT,TemperatureF,Dew PointF,Humidity,Sea Level PressureIn,VisibilityMPH,Wind Direction,Wind SpeedMPH,Gust SpeedMPH,PrecipitationIn,Events,Conditions,WindDirDegrees,DateUTC
12:15 AM,51.8,50.0,94,29.90,10.0,NE,5.8,-,N/A,,Overcast,50,2013-05-17 05:15:00
12:35 AM,51.8,50.0,94,29.90,10.0,NE,4.6,-,N/A,,Overcast,50,2013-05-17 05:35:00
12:55 AM,50.0,48.2,94,29.89,10.0,NNE,5.8,-,N/A,,Overcast,30,2013-05-17 05:55:00
1:15 AM,50.0,48.2,94,29.90,10.0,Calm,Calm,-,N/A,,Mostly Cloudy,0,2013-05-17 06:15:00
1:35 AM,50.0,48.2,94,29.89,10.0,NE,4.6,-,N/A,,Overcast,50,2013-05-17 06:35:00
1:55 AM,50.0,48.2,94,29.89,10.0,NE,5.8,-,N/A,,Overcast,50,2013-05-17 06:55:00
2:15 AM,50.0,48.2,94,29.88,10.0,NE,3.5,-,N/A,,Overcast,50,2013-05-17 07:15:00
2:35 AM,50.0,48.2,94,29.89,10.0,Calm,Calm,-,N/A,,Mostly Cloudy,0,2013-05-17 07:35:00
2:55 AM,50.0,48.2,94,29.89,10.0,ENE,3.5,-,N/A,,Mostly Cloudy,60,2013-05-17 07:55:00
3:15 AM,50.0,48.2,94,29.88,10.0,NE,3.5,-,N/A,,Overcast,40,2013-05-17 08:15:00
3:35 AM,50.0,48.2,94,29.88,10.0,NE,3.5,-,N/A,,Mostly Cloudy,50,2013-05-17 08:35:00
3:55 AM,50.0,48.2,94,29.88,10.0,ENE,4.6,-,N/A,,Overcast,70,2013-05-17 08:55:00
4:15 AM,50.0,48.2,94,29.88,10.0,ENE,5.8,-,N/A,,Overcast,60,2013-05-17 09:15:00
4:35 AM,50.0,48.2,94,29.87,10.0,ENE,6.9,-,N/A,,Overcast,60,2013-05-17 09:35:00
4:55 AM,50.0,48.2,94,29.87,10.0,ENE,6.9,-,N/A,,Overcast,70,2013-05-17 09:55:00
5:15 AM,50.0,48.2,94,29.87,10.0,NE,4.6,-,N/A,,Overcast,50,2013-05-17 10:15:00
5:35 AM,50.0,48.2,94,29.89,5.0,NE,3.5,-,N/A,Rain,Light Rain,50,2013-05-17 10:35:00
5:55 AM,50.0,48.2,94,29.90,5.0,Calm,Calm,-,0.01,Rain-Thunderstorm,Light Thunderstorms and Rain,0,2013-05-17 10:55:00
6:15 AM,50.0,48.2,94,29.89,2.0,ENE,4.6,-,0.02,Rain,Rain,60,2013-05-17 11:15:00
6:35 AM,50.0,48.2,94,29.88,4.0,ENE,6.9,-,0.03,Rain,Light Rain,70,2013-05-17 11:35:00
7:15 AM,50.0,48.2,94,29.88,9.0,ENE,4.6,-,N/A,,Overcast,60,2013-05-17 12:15:00
7:35 AM,50.0,50.0,100,29.89,8.0,NE,4.6,-,N/A,,Overcast,50,2013-05-17 12:35:00
7:55 AM,50.0,50.0,100,29.89,9.0,NE,5.8,-,N/A,,Overcast,50,2013-05-17 12:55:00
8:15 AM,50.0,50.0,100,29.89,9.0,ENE,6.9,-,N/A,,Overcast,60,2013-05-17 13:15:00
8:35 AM,50.0,50.0,100,29.90,10.0,East,6.9,-,N/A,,Overcast,80,2013-05-17 13:35:00
8:55 AM,51.8,50.0,94,29.90,7.0,East,8.1,-,N/A,,Overcast,80,2013-05-17 13:55:00
9:15 AM,51.8,50.0,94,29.90,6.0,East,6.9,-,N/A,,Overcast,80,2013-05-17 14:15:00
9:35 AM,51.8,50.0,94,29.90,7.0,ENE,5.8,-,N/A,,Mostly Cloudy,70,2013-05-17 14:35:00
9:55 AM,53.6,50.0,88,29.89,10.0,East,8.1,-,N/A,,Mostly Cloudy,90,2013-05-17 14:55:00
10:15 AM,53.6,50.0,88,29.89,10.0,East,4.6,-,N/A,,Mostly Cloudy,100,2013-05-17 15:15:00
10:35 AM,55.4,50.0,82,29.89,10.0,ESE,3.5,-,N/A,,Mostly Cloudy,120,2013-05-17 15:35:00
10:55 AM,57.2,51.8,82,29.89,10.0,ESE,6.9,-,N/A,,Scattered Clouds,110,2013-05-17 15:55:00
11:15 AM,57.2,51.8,82,29.89,10.0,ESE,6.9,-,N/A,,Mostly Cloudy,110,2013-05-17 16:15:00
11:35 AM,57.2,51.8,82,29.89,10.0,East,4.6,-,N/A,,Mostly Cloudy,80,2013-05-17 16:35:00
11:55 AM,59.0,53.6,82,29.88,10.0,East,3.5,-,N/A,,Mostly Cloudy,90,2013-05-17 16:55:00
12:15 PM,59.0,53.6,82,29.88,10.0,ESE,3.5,-,N/A,,Partly Cloudy,110,2013-05-17 17:15:00
12:35 PM,59.0,53.6,82,29.88,10.0,ESE,4.6,-,N/A,,Clear,120,2013-05-17 17:35:00
12:55 PM,60.8,53.6,77,29.88,10.0,ESE,4.6,-,N/A,,Scattered Clouds,120,2013-05-17 17:55:00
1:15 PM,62.6,53.6,72,29.87,10.0,East,4.6,-,N/A,,Scattered Clouds,90,2013-05-17 18:15:00
1:35 PM,64.4,55.4,73,29.86,10.0,ESE,4.6,-,N/A,,Scattered Clouds,110,2013-05-17 18:35:00
2:15 PM,64.4,53.6,68,29.86,10.0,Calm,Calm,-,N/A,,Partly Cloudy,0,2013-05-17 19:15:00
2:35 PM,66.2,55.4,68,29.85,10.0,Calm,Calm,-,N/A,,Mostly Cloudy,0,2013-05-17 19:35:00
2:55 PM,68.0,55.4,64,29.85,10.0,SSE,3.5,-,N/A,,Mostly Cloudy,150,2013-05-17 19:55:00
3:15 PM,66.2,55.4,68,29.85,10.0,NNE,8.1,-,N/A,,Mostly Cloudy,30,2013-05-17 20:15:00
3:35 PM,66.2,55.4,68,29.84,10.0,ENE,5.8,-,N/A,,Mostly Cloudy,70,2013-05-17 20:35:00
3:55 PM,68.0,57.2,68,29.84,10.0,ENE,8.1,-,N/A,,Partly Cloudy,60,2013-05-17 20:55:00
4:15 PM,68.0,57.2,68,29.84,10.0,ENE,4.6,-,N/A,,Scattered Clouds,60,2013-05-17 21:15:00
4:35 PM,69.8,55.4,60,29.83,10.0,East,3.5,-,N/A,,Mostly Cloudy,80,2013-05-17 21:35:00
4:55 PM,71.6,57.2,60,29.83,10.0,ENE,6.9,-,N/A,,Scattered Clouds,70,2013-05-17 21:55:00
5:15 PM,71.6,55.4,57,29.83,10.0,East,9.2,-,N/A,,Partly Cloudy,80,2013-05-17 22:15:00
5:35 PM,71.6,57.2,60,29.81,10.0,East,8.1,17.3,N/A,,Clear,80,2013-05-17 22:35:00
5:55 PM,71.6,57.2,60,29.80,10.0,NE,10.4,-,N/A,,Clear,50,2013-05-17 22:55:00
6:15 PM,71.6,57.2,60,29.80,10.0,ENE,9.2,-,N/A,,Clear,60,2013-05-17 23:15:00
6:35 PM,71.6,57.2,60,29.79,10.0,NE,12.7,-,N/A,,Clear,50,2013-05-17 23:35:00
6:55 PM,71.6,57.2,60,29.78,10.0,NE,9.2,-,N/A,,Clear,50,2013-05-17 23:55:00
7:15 PM,69.8,57.2,64,29.78,10.0,NE,8.1,-,N/A,,Clear,50,2013-05-18 00:15:00
7:35 PM,69.8,57.2,64,29.78,10.0,NE,11.5,-,N/A,,Clear,40,2013-05-18 00:35:00
7:55 PM,68.0,55.4,64,29.79,10.0,NE,9.2,-,N/A,,Clear,40,2013-05-18 00:55:00
8:15 PM,66.2,57.2,73,29.79,10.0,NE,9.2,-,N/A,,Clear,40,2013-05-18 01:15:00
8:35 PM,66.2,55.4,68,29.79,10.0,NE,8.1,-,N/A,,Clear,40,2013-05-18 01:35:00
8:55 PM,66.2,55.4,68,29.78,10.0,NE,9.2,-,N/A,,Clear,50,2013-05-18 01:55:00
9:15 PM,64.4,55.4,73,29.79,10.0,ENE,5.8,-,N/A,,Clear,70,2013-05-18 02:15:00
9:35 PM,62.6,55.4,77,29.79,10.0,ENE,5.8,-,N/A,,Clear,60,2013-05-18 02:35:00
9:55 PM,62.6,55.4,77,29.80,10.0,ENE,5.8,-,N/A,,Scattered Clouds,60,2013-05-18 02:55:00
10:15 PM,62.6,55.4,77,29.82,10.0,East,5.8,-,N/A,,Overcast,90,2013-05-18 03:15:00
10:35 PM,62.6,55.4,77,29.82,10.0,East,5.8,-,N/A,,Mostly Cloudy,80,2013-05-18 03:35:00
10:55 PM,60.8,55.4,82,29.82,10.0,East,6.9,-,N/A,,Overcast,80,2013-05-18 03:55:00
11:15 PM,60.8,53.6,77,29.80,10.0,East,6.9,-,N/A,,Overcast,80,2013-05-18 04:15:00
11:35 PM,59.0,53.6,82,29.80,10.0,ENE,3.5,-,N/A,,Mostly Cloudy,60,2013-05-18 04:35:00
11:55 PM,59.0,53.6,82,29.79,10.0,East,6.9,-,N/A,Thunderstorm,Scattered Clouds,80,2013-05-18 04:55:00